Terug naar catalogus

STARLINK-6362

ActiefCommunicatieVLEO
NORAD 57350·PAYLOAD·🇺🇸 United States

Gelanceerd Jul 16, 2023 vanaf Cape Canaveral Space Force Station

Loading…

Volgende Passages (komende 24 uur)

TLE

VersSource: CelesTrak SupGP

Epoch: Sep 14, 2026, 21:35 UTC

1 57350C 23099Y   26257.89979167  .00034236  00000+0  12402-2 0  2576
2 57350  43.0000 253.2943 0000913 270.8310 122.3824 15.27556736    11

Volg STARLINK-6362 in realtime met AllMySat

Download on the App Store